Regional Weather Roundup
Issued by NWS

Home | Current Version | Previous Version | Graphics & Text | Print | Product List | Glossary On
Versions: 1 2 3 4 5 6 7 8 9 10 11 12 13 14 15 16 17 18 19 20 21 22 23 24 25 26 27 28 29 30 31 32 33 34 35 36 37 38 39 40 41 42 43 44 45 46 47 48 49 50
326
ASUS43 KFSD 180102
RWRSD

WEATHER ROUNDUP FOR SOUTH DAKOTA
NATIONAL WEATHER SERVICE SIOUX FALLS SD
800 PM CDT THU AUG 17 2017

NOTE: "FAIR" INDICATES FEW OR NO CLOUDS BELOW 12,000 FEET WITH NO
SIGNIFICANT WEATHER AND/OR OBSTRUCTIONS TO VISIBILITY.


SDZ001>005-009-010-012>017-180200-
NORTHWEST AND NORTH CENTRAL SOUTH DAKOTA

CITY           SKY/WX    TMP DP  RH WIND       PRES   REMARKS
BUFFALO          N/A     78  44  29 W10       29.86F
FAITH            N/A     78  44  29 W10       29.90S
MOBRIDGE       CLOUDY    74  62  66 E9        29.83
$$

SDZ012>016-024>037-041>051-057-063-072>074-180200-
SOUTHWEST AND SOUTH CENTRAL SOUTH DAKOTA

CITY           SKY/WX    TMP DP  RH WIND       PRES   REMARKS
RAPID CTY ARPT LGT RAIN  68  51  54 NE17      29.92F
PIERRE         CLOUDY    75  57  53 E15G30    29.82R
CUSTER         CLOUDY    61  46  57 NE10      30.11F
ELLSWORTH AFB  CLOUDY    65  56  70 E7        29.95
PHILIP         MOCLDY    80  46  30 NW21G35   29.88R
PINE RIDGE     LGT RAIN  72  53  51 N20G35    30.01R
SPEARFISH      FAIR      72  46  40 SW7       30.01F
WINNER         TSTM      67  51  56 E17       29.80F
$$

SDZ004>011-016>023-039-040-180200-
NORTHEAST SOUTH DAKOTA

CITY           SKY/WX    TMP DP  RH WIND       PRES   REMARKS
ABERDEEN       CLEAR     71  62  73 E5        29.86F
WATERTOWN      CLEAR     72  57  59 CALM      29.88S
BROOKINGS      CLEAR     72  62  71 CALM      29.90S
SISSETON         N/A     73  64  73 CALM      29.85S
$$

SDZ017-020-022-023-036>040-048>070-180200-
SOUTHEAST SOUTH DAKOTA

CITY           SKY/WX    TMP DP  RH WIND       PRES   REMARKS
SIOUX FALLS    PTCLDY    72  63  73 CALM      29.89S
HURON          CLEAR     72  60  66 E7        29.85F
CHAMBERLAIN    CLOUDY    76  64  67 E13       29.82S
MITCHELL       CLOUDY    73  64  73 E7        29.85F
YANKTON        CLEAR     76  62  62 E5        29.89F
$$

ABBREVIATIONS USED IN REMARKS
   TC - TEMPERATURE IN CELSIUS
  WCI - WIND CHILL INDEX
   HX - HEAT INDEX
  VSB - VISIBILITY





USA.gov is the U.S. government's official web portal to all federal, state and local government web resources and services.